星链-35007 (STARLINK-35007)

导读

STARLINK-35007是美国于2025年8月22日发射的星链系列卫星,隶属于SpaceX公司的星链星座项目,该项目旨在为全球用户提供高速、低延迟的互联网覆盖服务,尤其服务偏远地区、海上航行和航空出行等场景。作为星链组网的一员,它进一步扩充了星座规模,助力系统完成全球网络布局。

基本信息
目录编号:
65287
目录名称:
STARLINK-35007
国际标识:
2025-184Q
轨道中心:
EARTH
卫星名称:
星链-35007
卫星全名:
星链-35007 (STARLINK-35007)
卫星状态:
在轨 (已飞行295 天)
发射日期:
2025-08-22 UTC
国别 :
美国 (US)
星等 :
--
轨道信息
数据来源 国际轨道数据 AOE轨道数据
星历时间 2026-06-13T10:18:25+0800
14小时前
查看轨道信息
2026-06-13T06:00:00+0800
18小时前
查看轨道信息
半长轴 6927.609km 6927.629km
偏心率 0.0001763 0.0001391
轨道倾角 97.365° 97.370°
近地点辐角 98.144° 111.171°
升交点赤经 215.805° 215.637°
平近点角 261.999° 356.851°
近地点 548.25km 548.528km
远地点 550.694km 550.456km
周期 95.639分钟 95.639分钟
每日圈数 15.05663 15.056564
详细信息
固有亮度:
5
最大亮度:
2.5
卫星平台:
Starlink V1.0
覆盖范围:
全球
运营商:
太空探索技术公司
运营商所在国:
美国
制造商(研发单位):
太空探索技术公司
制造商所在国:
美国
使用方式:
暂无
卫星简介
Starlink 计划是 SpaceX 推出的全球卫星互联网项目,通过发射低轨道卫星,为全球尤其是偏远地区提供高速、低延迟的互联网服务。自 2019 年起,Starlink 已部署数千颗卫星,旨在缩小全球数字鸿沟,推动互联网普及。该项目还为军事、航空等行业提供通信支持,带来广泛经济效益。
2D轨道图
3D轨道图
轨道高度分析图
轨道倾角分析图
轨道综合分析图
查看轨道综合分析图